THOR ABLESTAR DEB, 405

Orbit data source: Space-Track

THOR ABLESTAR DEB, 405 is space debris in LEO originally from a launch on Thu, 29 Jun 1961 UTC launched from the Air Force Eastern Test Range (AFETR). Debris objects in space refer to the collection of defunct objects orbiting the Earth. Examples of debris include non-operational satellites, rocket bodies, and fragments generated from explosions, collisions, or faulty payload assembly.

Loading next visibility...
Identifier
405, 1961-015EE
Orbit
LEO
Country
Flag of USUS
Related business
Manufacturer
Unknown
Mission
Spacecraft
Bus & Motor
Unknown
Mass
Unknown
Launch date (UTC)
1961-06-29 (65 years ago)
Launch vehicle
Unknown
Launch site
Air Force Eastern Test Range (AFETR)
Object type
Payload
Rocket body
Debris
Shape & HBR
Unknown shape, 0.3 m
Radar Cross Section
Small (<0.1 m²)

Expand to show TLE details & history
Last TLE update: 9 hours ago

TLE from 9 hours ago
0 THOR ABLESTAR DEB
1 00405U 61015EE  26105.87285213  .00000122  00000-0  22636-3 0  9999
2 00405  66.8932 308.2557 0089242 226.1461 232.5407 13.66685635223630
Epoch: 2026-04-15T20:56Z
TLE epoch observation values (Epoch: 2026-04-15T20:56:54.424Z)
Latitude
65.7641°
Longitude
-100.55065°
Altitude
1,062.509 km
Speed
7.307 km/s
True Right ascension
03h 50m 49s
True Declination
65° 38' 25"
Sunlit
Object was in daylight at epoch
Visualization orbit readout
Latitude
Unknown
Longitude
Unknown
Altitude
Unknown
Speed
Unknown
Apparent Right ascension
Unknown
Apparent Declination
Unknown
Sunlit
N/A
Visualization observer readout
Local Sidereal Time
12:54:14
Azimuth
Unknown
Elevation
Unknown
Doppler factor
Unknown
Orbital elements
Apogee altitude
1,075.828 km
Perigee altitude
943.963 km
Semi-major axis
7,388.033 km
Eccentricity
0.00892
Inclination
66.8932°
RAAN
308.2557°
Arg. of periapsis
226.1461°
True anomaly
231.73444°
Mean anomaly
232.5407°
Eccentric anomaly
232.13702°
Mean motion
3.41783 °/min
Orbital period
105.33 mins
BSTAR
0.00022636
Loading maneuver chart data...
Computing Atmospheric mass density...

Documentation

Showing up to 5 results
|